Bremerton, WA

9:14 PM PDT on August 16, 2017 (GMT -0700)
Bremerton National

Weather History for KPWT - February, 2013

Change the Weather History Date:

Tuesday, February 19, 2013

  Actual Average Record
Temperature  
Mean Temperature 37 °F -  
Max Temperature 46 °F 46 °F 53 °F (2000)
Min Temperature 26 °F 32 °F 21 °F (2005)
Degree Days  
Heating Degree Days 28    
Moisture  
Dew Point 32 °F    
Average Humidity 79    
Maximum Humidity 87    
Minimum Humidity 57    
Precipitation  
Precipitation 0.02 in - - ()
Sea Level Pressure  
Sea Level Pressure 29.86 in    
Wind  
Wind Speed 2 mph (North)    
Max Wind Speed 9 mph    
Max Gust Speed -    
Visibility 10 miles    
Events      
Averages and records for this station are not official NWS values.
T = Trace of Precipitation, MM = Missing Value Source: NWS Daily Summary

Daily Weather History Graph

Daily Weather History Graph

Search for Another Location

Airport or City:

Trip Planner

Search our weather history database for the weather conditions in past years. The results will help you decide how hot, cold, wet, or windy it might be!

Date:

Astronomy

Feb. 19, 2013 Rise Set
Actual Time 7:09 AM PST 5:41 PM PST
Civil Twilight 6:37 AM PST 6:12 PM PST
Nautical Twilight 6:01 AM PST 6:48 PM PST
Astronomical Twilight 5:26 AM PST 7:24 PM PST
Moon 12:04 PM PST (2/19) 2:58 AM PST (2/19)
Length of Visible Light 11h 35m
Length of Day
10h 32m
Waxing Gibbous, 68% of the Moon is Illuminated
Feb 19
Waxing Gibbous
Feb 25
Full
Mar 4
Last Quarter
Mar 11
New
Mar 19
First Quarter

Hourly Weather History & Observations

Time (PST) Temp. Windchill Dew Point Humidity Pressure Visibility Wind Dir Wind Speed Gust Speed Precip Events Conditions
12:15 AM 37.4 °F - 33.8 °F 87% 29.78 in 10.0 mi Calm Calm - N/A   Overcast
12:35 AM 37.4 °F 32.8 °F 33.8 °F 87% 29.78 in 10.0 mi WNW 5.8 mph - N/A   Overcast
12:55 AM 37.4 °F 33.8 °F 33.8 °F 87% 29.77 in 10.0 mi WNW 4.6 mph - N/A   Overcast
1:15 AM 37.4 °F 32.8 °F 33.8 °F 87% 29.77 in 10.0 mi WNW 5.8 mph - 0.01 in   Overcast
1:35 AM 37.4 °F 32.8 °F 32.0 °F 81% 29.77 in 10.0 mi WNW 5.8 mph - 0.01 in   Overcast
1:55 AM 37.4 °F 33.8 °F 32.0 °F 81% 29.77 in 10.0 mi West 4.6 mph - 0.01 in   Overcast
2:15 AM 37.4 °F - 32.0 °F 81% 29.76 in 10.0 mi Calm Calm - N/A   Overcast
2:35 AM 35.6 °F - 32.0 °F 87% 29.77 in 10.0 mi Calm Calm - 0.01 in   Overcast
2:55 AM 35.6 °F - 32.0 °F 87% 29.76 in 10.0 mi Calm Calm - 0.01 in   Overcast
3:15 AM 35.6 °F - 32.0 °F 87% 29.76 in 10.0 mi Calm Calm - N/A   Mostly Cloudy
3:55 AM 35.6 °F - 32.0 °F 87% 29.76 in 10.0 mi Calm Calm - N/A   Overcast
4:15 AM 35.6 °F - 32.0 °F 87% 29.77 in 10.0 mi Calm Calm - N/A   Overcast
4:35 AM 35.6 °F - 32.0 °F 87% 29.77 in 10.0 mi Calm Calm - N/A   Overcast
4:55 AM 37.4 °F - 32.0 °F 81% 29.78 in 10.0 mi Calm Calm - N/A   Overcast
5:15 AM 37.4 °F - 33.8 °F 87% 29.78 in 10.0 mi Calm Calm - N/A   Overcast
5:35 AM 37.4 °F - 33.8 °F 87% 29.77 in 10.0 mi Calm Calm - N/A   Overcast
5:55 AM 37.4 °F - 32.0 °F 81% 29.78 in 9.0 mi Calm Calm - N/A   Mostly Cloudy
6:15 AM 37.4 °F - 33.8 °F 87% 29.78 in 5.0 mi Calm Calm - N/A   Mostly Cloudy
6:35 AM 37.4 °F - 33.8 °F 87% 29.79 in 10.0 mi Calm Calm - N/A   Mostly Cloudy
6:55 AM 37.4 °F - 33.8 °F 87% 29.78 in 10.0 mi Calm Calm - N/A   Overcast
7:15 AM 37.4 °F - 33.8 °F 87% 29.79 in 10.0 mi Calm Calm - N/A   Mostly Cloudy
7:35 AM 37.4 °F - 32.0 °F 81% 29.79 in 10.0 mi Calm Calm - N/A   Overcast
7:55 AM 37.4 °F 34.9 °F 33.8 °F 87% 29.80 in 10.0 mi East 3.5 mph - N/A   Overcast
8:15 AM 37.4 °F - 33.8 °F 87% 29.80 in 10.0 mi Calm Calm - N/A   Overcast
8:35 AM 37.4 °F - 33.8 °F 87% 29.81 in 10.0 mi Calm Calm - N/A   Overcast
8:55 AM 37.4 °F - 33.8 °F 87% 29.82 in 10.0 mi Calm Calm - N/A   Overcast
9:15 AM 39.2 °F - 33.8 °F 81% 29.83 in 10.0 mi Calm Calm - N/A   Overcast
9:35 AM 39.2 °F 35.9 °F 35.6 °F 87% 29.82 in 10.0 mi NE 4.6 mph - N/A   Overcast
10:15 AM 41.0 °F 36.4 °F 35.6 °F 81% 29.83 in 10.0 mi NNE 6.9 mph - N/A   Overcast
10:35 AM 41.0 °F 35.8 °F 35.6 °F 81% 29.83 in 10.0 mi NE 8.1 mph - N/A   Overcast
10:55 AM 42.8 °F 38.0 °F 37.4 °F 81% 29.84 in 10.0 mi NNE 8.1 mph - N/A   Overcast
11:15 AM 44.6 °F 39.7 °F 37.4 °F 76% 29.84 in 10.0 mi NE 9.2 mph - N/A   Partly Cloudy
11:35 AM 44.6 °F 40.2 °F 37.4 °F 76% 29.84 in 10.0 mi NNE 8.1 mph - N/A   Clear
11:55 AM 46.4 °F 43.5 °F 35.6 °F 66% 29.85 in 10.0 mi North 5.8 mph - N/A   Partly Cloudy
12:15 PM 46.4 °F 44.3 °F 33.8 °F 62% 29.84 in 10.0 mi NNE 4.6 mph - N/A   Mostly Cloudy
12:35 PM 46.4 °F 45.2 °F 35.6 °F 66% 29.84 in 10.0 mi East 3.5 mph - N/A   Mostly Cloudy
12:55 PM 46.4 °F 43.5 °F 35.6 °F 66% 29.85 in 10.0 mi NNE 5.8 mph - N/A   Mostly Cloudy
1:15 PM 46.4 °F 42.4 °F 33.8 °F 62% 29.86 in 10.0 mi North 8.1 mph - N/A   Mostly Cloudy
1:35 PM 46.4 °F 43.5 °F 33.8 °F 62% 29.86 in 10.0 mi North 5.8 mph - N/A   Overcast
1:55 PM 46.4 °F - 33.8 °F 62% 29.87 in 10.0 mi Calm Calm - N/A   Overcast
2:15 PM 46.4 °F - 33.8 °F 62% 29.86 in 10.0 mi Calm Calm - N/A   Mostly Cloudy
2:35 PM 46.4 °F 42.9 °F 33.8 °F 62% 29.88 in 10.0 mi North 6.9 mph - N/A   Overcast
2:55 PM 44.6 °F 40.2 °F 33.8 °F 66% 29.88 in 10.0 mi North 8.1 mph - N/A   Overcast
3:15 PM 44.6 °F 41.4 °F 33.8 °F 66% 29.89 in 10.0 mi North 5.8 mph - N/A   Overcast
4:35 PM 44.6 °F 41.4 °F 30.2 °F 57% 29.89 in 10.0 mi North 5.8 mph - N/A   Partly Cloudy
4:55 PM 42.8 °F - 30.2 °F 61% 29.90 in 10.0 mi Calm Calm - N/A   Clear
5:15 PM 39.2 °F 37.0 °F 30.2 °F 70% 29.91 in 10.0 mi NW 3.5 mph - N/A   Clear
5:35 PM 42.8 °F 41.1 °F 30.2 °F 61% 29.91 in 10.0 mi North 3.5 mph - N/A   Clear
5:55 PM 39.2 °F - 30.2 °F 70% 29.91 in 10.0 mi Calm Calm - N/A   Partly Cloudy
6:15 PM 35.6 °F - 28.4 °F 75% 29.92 in 10.0 mi Calm Calm - N/A   Scattered Clouds
6:35 PM 35.6 °F - 28.4 °F 75% 29.94 in 10.0 mi Calm Calm - N/A   Partly Cloudy
7:15 PM 33.8 °F - 26.6 °F 75% 29.94 in 10.0 mi Calm Calm - N/A   Clear
7:35 PM 32.0 °F - 28.4 °F 87% 29.95 in 10.0 mi Calm Calm - N/A   Clear
7:55 PM 32.0 °F - 26.6 °F 80% 29.94 in 10.0 mi Calm Calm - N/A   Clear
8:15 PM 30.2 °F - 24.8 °F 80% 29.96 in 10.0 mi Calm Calm - N/A   Clear
8:35 PM 30.2 °F - 24.8 °F 80% 29.98 in 10.0 mi Calm Calm - N/A   Clear
8:55 PM 30.2 °F - 24.8 °F 80% 29.98 in 10.0 mi Calm Calm - N/A   Clear
9:15 PM 30.2 °F - 26.6 °F 86% 29.98 in 10.0 mi Calm Calm - N/A   Clear
9:35 PM 28.4 °F - 24.8 °F 86% 29.98 in 10.0 mi Calm Calm - N/A   Clear
10:15 PM 28.4 °F - 24.8 °F 86% 30.01 in 10.0 mi Calm Calm - N/A   Clear
10:35 PM 28.4 °F 24.6 °F 24.8 °F 86% 30.01 in 10.0 mi SE 3.5 mph - N/A   Clear
10:55 PM 28.4 °F - 24.8 °F 86% 30.01 in 10.0 mi Calm Calm - N/A   Clear
11:15 PM 28.4 °F 23.3 °F 24.8 °F 86% 30.01 in 10.0 mi ESE 4.6 mph - N/A   Clear
11:35 PM 28.4 °F - 24.8 °F 86% 30.03 in 10.0 mi Calm Calm - N/A   Partly Cloudy
11:55 PM 26.6 °F - 21.2 °F 80% 30.04 in 10.0 mi Calm Calm - N/A   Partly Cloudy